Regional Weather Roundup
Issued by NWS

Home | Current Version | Previous Version | Graphics & Text | Print | Product List | Glossary On
Versions: 1 2 3 4 5 6 7 8 9 10 11 12 13 14 15 16 17 18 19 20 21 22 23 24 25 26 27 28
000
ASUS45 KBOI 270910
RWRID

IDAHO REGIONAL WEATHER ROUNDUP
NATIONAL WEATHER SERVICE BOISE ID
300 AM MDT TUE SEP 27 2016

NOTE: "FAIR" INDICATES FEW OR NO CLOUDS BELOW 12000 FEET
WITH NO SIGNIFICANT WEATHER AND/OR OBSTRUCTIONS TO VISIBILITY

IDZ012-014-271000-
SOUTHWEST IDAHO


CITY           SKY/WX    TMP DP  RH WIND       PRES   REMARKS
BOISE          CLEAR     62  42  47 SE10      30.10F
CALDWELL       CLEAR     51  43  74 E5        30.10S
MOUNTAIN HOME  CLEAR     53  45  75 E5        30.11F
$$

IDZ016-017-271000-
SOUTHCENTRAL IDAHO


CITY           SKY/WX    TMP DP  RH WIND       PRES   REMARKS
BURLEY         CLEAR     45  43  93 CALM      30.20S
JEROME         CLEAR     54  44  69 NE10      30.19S
TWIN FALLS     CLEAR     52  44  74 S6        30.19S
$$

IDZ019>023-271000-
SOUTHEAST IDAHO


CITY           SKY/WX    TMP DP  RH WIND       PRES   REMARKS
IDAHO FALLS    CLOUDY    44  41  89 N5        30.27S
POCATELLO      CLOUDY    44  40  85 CALM      30.25F
REXBURG        CLOUDY    44  42  93 CALM      30.28S
$$

IDZ006-010-011-018-031-032-271000-
CENTRAL IDAHO MOUNTAINS


CITY           SKY/WX    TMP DP  RH WIND       PRES   REMARKS
MCCALL         CLEAR     45  38  76 CALM      30.24F
HAILEY         CLEAR     50  43  76 NW10      30.31S
STANLEY          N/A     37  33  85 CALM      30.36F
SALMON         CLEAR     43  43 100 CALM      30.23S
CHALLIS        CLEAR     48  37  65 CALM      30.27F
$$

IDZ002-004-006-007-026-271000-
NORTHERN IDAHO


CITY           SKY/WX    TMP DP  RH WIND       PRES   REMARKS
LEWISTON       CLEAR     64  46  52 VRB3      29.98S
LOWELL           N/A     53  50  89 CALM      30.11R
COEUR D`ALENE  NOT AVBL
MULLAN PASS    CLEAR     58  38  47 S8        30.20F
$$




USA.gov is the U.S. government's official web portal to all federal, state and local government web resources and services.